Terug naar catalogus

TRANSIT 5B-2 DEB

ActiefPO
NORAD 25156·DEBRIS·🇺🇸 United States

Gelanceerd Dec 5, 1963 vanaf Vandenberg Space Force Base

Loading…

Volgende Passages (komende 24 uur)

TLE

VersSource: Space-Track

Epoch: Sep 14, 2026, 11:04 UTC

1 25156U 63049N   26257.46114794  .00000500  00000-0  68076-3 0  9994
2 25156  89.9179  71.2129 0043073 120.6761 268.3746 13.57424307411149

Volg TRANSIT 5B-2 DEB in realtime met AllMySat

Download on the App Store